Regional Weather Roundup
Issued by NWS

Home | Current Version | Previous Version | Graphics & Text | Print | Product List | Glossary On
Versions: 1 2 3 4 5 6 7 8 9 10 11 12 13 14 15 16 17 18 19 20 21 22 23 24 25 26 27 28 29 30 31 32 33 34 35 36 37 38 39 40 41 42 43 44 45 46 47 48 49 50
000
ASUS43 KMPX 302101
RWRMN
WEATHER ROUNDUP FOR MINNESOTA
NATIONAL WEATHER SERVICE TWIN CITIES/CHANHASSEN MN
400 PM CDT MON MAY 30 2016


NOTE: "FAIR" INDICATES FEW OR NO CLOUDS BELOW 12,000 FEET WITH NO
SIGNIFICANT WEATHER AND/OR OBSTRUCTIONS TO VISIBILITY. N/A MEANS
CURRENT SKY AND/OR WEATHER CONDITIONS ARE NOT AVAILABLE.

MNZ060>063-068>070-302200-
   Twin Cities Metro

CITY           SKY/WX    TMP DP  RH WIND       PRES   REMARKS
TWIN CITIES    MOSUNNY   83  51  33 SE9       29.94F
ST PAUL        MOSUNNY   82  56  40 SE8       29.94F
CRYSTAL        SUNNY     82  49  31 SW10      29.93F
BLAINE         PTSUNNY   82  52  34 S9        29.95F
EDEN PRAIRIE   MOSUNNY   84  52  33 S12G20    29.93F
SOUTH ST PAUL  MOSUNNY   82  49  31 SE6       29.94F
LAKE ELMO      FAIR      81  55  41 SW7G17    29.97S
$$
MNZ001>005-007-008-013>017-022>024-027-028-302200-
   Northwest Minnesota

CITY           SKY/WX    TMP DP  RH WIND       PRES   REMARKS
BEMIDJI        MOSUNNY   78  47  33 E9        29.91S
HALLOCK        MOSUNNY   81  41  24 SE8       29.86S
ROSEAU         SUNNY     79  52  38 SW3       29.90S
WARROAD        SUNNY     70  57  64 NE13      29.92S
THIEF RVR FALL MOSUNNY   75  50  41 SE7       29.90S
CROOKSTON      CLOUDY    79  55  44 SE5       29.86F
FOSSTON        SUNNY     81  57  44 N5        29.90S
DETROIT LAKES  MOSUNNY   81  46  30 S10G17    29.90F
MOORHEAD       CLOUDY    82  46  28 S8        29.84F
PARK RAPIDS    CLOUDY    80  47  31 S7        29.90F
MAHNOMEN       FAIR      78  51  40 S5        29.88F
$$
MNZ006-009>011-018-025>026-302200-
   North Central Minnesota

CITY           SKY/WX    TMP DP  RH WIND       PRES   REMARKS
BAUDETTE       SUNNY     78  44  29 N5        29.91F
FLAG ISLAND    MOSUNNY   70  46  43 NE7       29.93R
INTL FALLS     MOSUNNY   74  51  44 N10       29.93F
WASKISH        MOSUNNY   77  46  33 SW7       29.92S
BIG FORK       CLOUDY    75  45  33 CALM      29.94F
LONGVILLE      CLOUDY    79  50  36 SE5       29.92F
GRAND RAPIDS   CLOUDY    78  46  32 W8        29.94F
CRANE LAKE     SUNNY     72  46  40 N6        29.97S
ORR            MOSUNNY   77  39  25 CALM      29.92F
COOK           MOSUNNY   73  45  35 CALM      29.95F
WALKER         FAIR      77  50  39 E6        29.91S
$$
MNZ012-019>021-037-302200-
   Northeast Minnesota

CITY           SKY/WX    TMP DP  RH WIND       PRES   REMARKS
DULUTH         MOSUNNY   80  44  27 CALM      29.94F
ELY            MOSUNNY   73  45  35 N5        29.96S
HIBBING        SUNNY     76  42  29 SW6       29.94F
EVELETH        PTSUNNY   77  41  27 NW3       29.96F
DULUTH HARBOR  SUNNY     72  52  49 E8        29.93F
TWO HARBORS    MOSUNNY   79  52  38 CALM      29.93S
SILVER BAY     CLOUDY    79  45  29 NW5       29.93S
GRAND MARAIS     N/A     80  45  28 N9G17     29.92R
G MARAIS ARPRT MOSUNNY   72  43  35 NW13G21   29.98S
$$
MNZ029>031-032-039>041-046>048-054>057-064-302200-
   West Central Minnesota

CITY           SKY/WX    TMP DP  RH WIND       PRES   REMARKS
FERGUS FALLS   MOSUNNY   82  46  28 S14G21    29.83S
WHEATON        CLOUDY    86  55  35 SE10      29.85F
MORRIS         CLOUDY    81  55  41 S12       29.85F
ALEXANDRIA     CLOUDY    79  53  40 S13       29.92F
ELBOW LAKE     FAIR      83  53  35 SE12G17   29.88F
WADENA         MOSUNNY   81  52  36 S9G18     29.90F
GLENWOOD       MOSUNNY   81  54  39 SE13G18   29.91F
APPLETON       MOSUNNY   84  48  28 S10G17    29.85F
ORTONVILLE     MOSUNNY   84  52  32 S12G17    29.84F
MADISON        MOSUNNY   84  48  28 S18       29.85F
WILLMAR        FAIR      84  54  34 S6        29.91F
$$
MNZ033>034-036-042>043-049>051-058-059-302200-
   Central Minnesota

CITY           SKY/WX    TMP DP  RH WIND       PRES   REMARKS
ST CLOUD       MOSUNNY   81  51  35 S12       29.93F
SAUK CENTRE    FAIR      78  53  43 SE13      29.92F
PAYNESVILLE    MOSUNNY   82  46  28 SE9G22    29.93F
AITKIN         CLOUDY    82  43  24 S7        29.91F
PINE RIVER     PTSUNNY   73  55  53 E6        29.95S
BRAINERD       CLOUDY    80  51  36 S14       29.92F
STAPLES        MOSUNNY   79  46  31 S9G17     29.91F
LONG PRAIRIE   FAIR      79  54  41 SE15G21   29.93F
LITTLE FALLS   CLOUDY    81  45  28 S12       29.93F
LITCHFIELD     SUNNY     82  46  28 SE8G21    29.93F
BUFFALO        SUNNY     82  49  32 S8        29.95F
MAPLE LAKE     MOSUNNY   81  58  44 S6        29.95F
HUTCHINSON     SUNNY     82  55  39 SE7       29.94F
$$
MNZ037-044-045-052-053-302200-
   East Central Minnesota

CITY           SKY/WX    TMP DP  RH WIND       PRES   REMARKS
PRINCETON      MOSUNNY   84  54  34 SE7       29.94F
MORA           CLOUDY    77  50  38 SW6       29.95F
CAMBRIDGE        N/A     82  61  47 S3        29.93F
RUSH CITY      MOSUNNY   81  50  34 S5        29.94F
MOOSE LAKE     MOSUNNY   79  48  34 CALM      29.92F
HINCKLEY       MOCLDY    77  54  44 S7        29.94F
CLOQUET        MOSUNNY   79  39  24 SW7       29.94F
MCGREGOR       MOSUNNY   79  50  36 S10       29.93F
$$
MNZ071>073-080-081-089-090-097-098-302200-
   Southwest Minnesota

CITY           SKY/WX    TMP DP  RH WIND       PRES   REMARKS
MONTEVIDEO     CLOUDY    84  52  32 SW16      29.89F
GRANITE FALLS  PTSUNNY   84  54  35 SE20      29.90F
CANBY          MOSUNNY   84  57  39 SE13G22   29.87F
MARSHALL       CLOUDY    83  55  38 S16G25    29.87F
REDWOOD FALLS  PTSUNNY   83  53  35 S16G25    29.89F
OLIVIA         MOSUNNY   81  52  36 S13G23    29.90F
PIPESTONE      CLOUDY    79  57  47 S13       29.90F
WINDOM         MOSUNNY   82  54  36 CALM      29.92F
WORTHINGTON    MOSUNNY   82  56  40 S12       29.91F
JACKSON        MOSUNNY   82  52  34 S12G18    29.93F
TRACY          CLOUDY    82  57  42 SE15      29.90F
SLAYTON        CLOUDY    81  52  36 SE15G24   29.91F
$$
MNZ065>067-074>077-082>085-091>093-302200-
   South Central Minnesota

CITY           SKY/WX    TMP DP  RH WIND       PRES   REMARKS
MANKATO        MOSUNNY   82  48  30 S14G20    29.93F
NEW ULM        MOSUNNY   81  54  39 S14       29.92F
ST JAMES       SUNNY     77  52  41 SE9G16    29.93F
FAIRMONT       MOSUNNY   81  57  44 SE16      29.92F
GLENCOE        SUNNY     84  52  32 SE10G16   29.93F
FARIBAULT      SUNNY     82  48  30 S6        29.96F
OWATONNA       SUNNY     82  46  28 SE10      29.96F
WASECA         SUNNY     81  50  34 S9        29.96F
ALBERT LEA     SUNNY     81  48  32 SE8       29.96F
$$
MNZ078>079-086>088-094>096-302200-
   Southeast Minnesota

CITY           SKY/WX    TMP DP  RH WIND       PRES   REMARKS
ROCHESTER      SUNNY     80  51  36 S13G20    29.98F
RED WING       MOSUNNY   82  48  30 S5        29.95F
STANTON        MOSUNNY   82  47  29 S6        29.94F
DODGE CENTER   SUNNY     82  45  26 S10       29.97F
WINONA         SUNNY     81  52  36 CALM      29.97F
AUSTIN         SUNNY     79  50  36 S10       29.97F
PRESTON        SUNNY     80  47  31 SE9       29.99F
$$
ABBREVIATIONS USED IN REMARKS
   TC - TEMPERATURES IN CELSIUS
  WCI - WIND CHILL INDEX
   HX - HEAT INDEX
  VSB - VISIBILITY
$$




USA.gov is the U.S. government's official web portal to all federal, state and local government web resources and services.